Regional Weather Roundup
Issued by NWS

Home | Current Version | Previous Version | Graphics & Text | Print | Product List | Glossary On
Versions: 1 2 3 4 5 6 7 8 9 10 11 12 13 14 15 16 17 18 19 20 21 22 23 24 25 26 27 28 29 30 31 32 33 34 35 36 37 38 39 40 41 42 43 44 45 46 47 48 49 50
000
ASUS43 KDMX 181307
RWRIA

WEATHER ROUNDUP FOR IOWA
NATIONAL WEATHER SERVICE DES MOINES IA
800 AM CDT SAT APR 18 2015

NOTE: "FAIR" INDICATES FEW OR NO CLOUDS BELOW 12,000 FEET WITH NO
SIGNIFICANT WEATHER AND/OR OBSTRUCTIONS TO VISIBILITY.

* - THESE STATIONS ARE NOT NWS STATIONS...THUS NOT UNDER NWS
QUALITY CONTROL.  THEY ALSO DO NOT REPORT WEATHER SUCH
AS PRECIPITATION OR FOG.

IAZ001>003-012>014-020>022-031>034-043>046-181400-
   NORTHWEST IOWA

CITY           SKY/WX    TMP DP  RH WIND       PRES   REMARKS
CARROLL *      CLOUDY    57  55  94 E9        29.98S
CHEROKEE *     CLOUDY    57  45  62 E9        29.97F
DENISON *      PTSUNNY   57  57 100 E7        29.93F
LE MARS *      CLOUDY    55  46  71 N3        29.98S
ORANGE CITY *  CLOUDY    55  37  50 E8        29.98S
SHELDON *      PTSUNNY   59  36  41 E13       29.98S
SIOUX CITY     CLOUDY    57  49  74 N8        29.95F
SPENCER        CLOUDY    57  38  48 E10       30.00S
STORM LAKE *   CLOUDY    55  45  67 NE10      29.99S
$$

IAZ055>058-069>071-079>083-090>094-181400-
   SOUTHWEST IOWA

CITY           SKY/WX    TMP DP  RH WIND       PRES   REMARKS
ATLANTIC *     PTSUNNY   61  57  88 E9        29.95S
AUDUBON *      RAIN      59  55  88 E6        29.97F
CLARINDA *     PTSUNNY   61  57  88 N5        29.94F
COUNCIL BLFS * PTSUNNY   61  59  94 E10       29.93S
CRESTON *      PTSUNNY   59  57  94 E9        29.96F
HARLAN  *      PTSUNNY   61  61 100 E9        29.97S
LAMONI         CLOUDY    61  55  81 E5        29.95S
RED OAK *      CLOUDY    63  57  82 E10       29.92F
SHENANDOAH *   PTSUNNY   61  57  88 NE8       29.92F
$$

IAZ047>049-059>061-072>074-084-181400-
   CENTRAL IOWA

CITY           SKY/WX    TMP DP  RH WIND       PRES   REMARKS
AMES           LGT RAIN  58  56  93 N3        30.00R FOG
ANKENY *       CLOUDY    61  59  94 N7        29.99R
CHARITON *     CLOUDY    59  54  82 NE6       29.97F
DES MOINES     CLOUDY    62  57  83 NE13      29.97F
GRINNELL*      PTSUNNY   61  50  67 E5        30.01R
KNOXVILLE *    PTSUNNY   61  52  72 E5        29.97S
MARSHALLTOWN   CLOUDY    59  48  67 E7        30.00R
PELLA *        PTSUNNY   63  55  77 E3        30.00R
PERRY *        RAIN      61  55  82 E8        29.98S
$$

IAZ004>006-015-016-023>025-035-036-181400-
   NORTH CENTRAL IOWA

CITY           SKY/WX    TMP DP  RH WIND       PRES   REMARKS
ALGONA *       CLOUDY    57  39  51 E10       30.02S
CLARION *      PTSUNNY   57  45  62 E10       30.02R
ESTHERVILLE    CLOUDY    54  37  52 E12       30.01F
FORT DODGE *   CLOUDY    57  45  62 E10       30.01S
MASON CITY     CLOUDY    54  43  66 E8        30.04S
FOREST CITY *  PTSUNNY   57  36  44 E8        30.03S
IOWA FALLS *   LGT RAIN  57  45  62 S5        30.03R
$$

IAZ007>011-017>019-026>030-037>042-050>054-066-181400-
   NORTHEAST IOWA

CITY           SKY/WX    TMP DP  RH WIND       PRES   REMARKS
CEDAR RAPIDS   MOSUNNY   59  51  75 E6        30.00R
CHARLES CITY * SUNNY     59  39  47 E12       30.04S
CLINTON *      SUNNY     55  52  88 E8        30.04S
DECORAH *      SUNNY     57  43  58 NE7G14    30.05R
DUBUQUE        MOSUNNY   59  46  62 NE9       30.03S
MONTICELLO *   SUNNY     63  48  59 E8        30.02S
OELWEIN *      SUNNY     59  43  55 E12       30.03S
WATERLOO       MOSUNNY   59  44  57 E7        30.02R
$$

IAZ064-065-067-068-078-181400-
   EAST CENTRAL IOWA

CITY           SKY/WX    TMP DP  RH WIND       PRES   REMARKS
DAVENPORT      SUNNY     57  49  74 E6        30.02R
IOWA CITY      MOSUNNY   61  51  70 N5        30.02R
MT. PLEASANT * PTSUNNY   59  54  82 CALM      30.00R
MUSCATINE *    SUNNY     57  52  82 CALM      30.00F
QUAD CITIES    MOSUNNY   55  50  83 E3        30.01S
$$

IAZ062-063-075>077-085>089-095>099-181400-
   SOUTHEAST IOWA

CITY           SKY/WX    TMP DP  RH WIND       PRES   REMARKS
BURLINGTON     PTSUNNY   64  56  75 CALM      29.99S
FAIRFIELD *    PTSUNNY   59  54  82 NE7       30.00R
FORT MADISON * SUNNY     63  55  77 S3        30.01R
KEOKUK *       SUNNY     59  55  88 E3        29.99R
OSKALOOSA *    CLOUDY    61  52  72 E6        29.99S
CENTERVILLE *  SUNNY     59  57  94 E6        29.99R
OTTUMWA        PTSUNNY   60  53  77 E5        29.98S
WASHINGTON *   SUNNY     59  57  94 CALM      30.00S
$$

ABBREVIATIONS USED IN REMARKS
   TC - TEMPERATURES IN CELSIUS
  WCI - WIND CHILL INDEX
   HX - HEAT INDEX
  VSB - VISIBILITY
$$



USA.gov is the U.S. government's official web portal to all federal, state and local government web resources and services.